Estación Meteorológica Peña el Pijo (Robertgarden) [ 07/23/19 00:05:24 CEST ]

Fecha Hora Presion(HPa) Temp (°C) Humedad % Rocio (°C) Viento ( m/s) Direccion Lluvia 1Hora(mm) Lluvia 24H(mm) LLuvia Total(mm)
2019-Jun-28 01:09:19 1013.900 - - - - WSW     330.48
2019-Jun-28 02:08:59 1013.700 - - - - WSW     330.48
2019-Jun-28 03:09:37 1013.300 - - - - WSW     330.48
2019-Jun-28 04:11:28 1012.900 - - - - WSW     330.48
2019-Jun-28 05:08:48 1012.600 - - - - WSW     330.48
2019-Jun-28 06:09:14 1012.800 - - - - WSW     330.48
2019-Jun-28 07:09:14 1012.900 - - - - WSW     330.48
2019-Jun-28 08:09:19 1012.800 - - - - WSW     330.48
2019-Jun-28 09:09:45 1012.400 - - - - WSW     330.48
2019-Jun-28 10:09:05 1012.200 - - - - WSW     330.48
2019-Jun-28 11:09:16 1012.700 - - - - WSW     330.48
2019-Jun-28 12:08:56 1012.400 - - - - WSW     330.48
2019-Jun-28 13:09:40 1012.300 - - - - WSW     330.48
2019-Jun-28 14:09:02 1011.800 - - - - WSW     330.48
2019-Jun-28 15:08:46 1011.500 - - - - WSW     330.48
2019-Jun-28 16:09:23 1011.200 - - - - WSW     330.48
2019-Jun-28 17:09:24 1011.000 - - - - WSW     330.48
2019-Jun-28 18:08:53 1010.900 - - - - WSW     330.48
2019-Jun-28 19:08:59 1010.800 - - - - WSW     330.48
2019-Jun-28 20:09:34 1010.900 - - - - WSW     330.48
2019-Jun-28 21:09:06 1011.400 - - - - WSW     330.48
2019-Jun-28 22:09:26 1011.800 - - - - WSW     330.48
2019-Jun-28 23:09:06 1012.300 - - - - WSW     330.48

Temperatura Máxima:    Temperatura Mínima:
Presión Máxima:1013.900 Hpa    Presión Mínima:1010.800 Hpa


Volver